Reno, NV

11:16 PM PDT on May 25, 2018 (GMT -0700)
Reno-Tahoe International

Weather History for KRNO - July, 2014

Change the Weather History Date:

Monday, July 14, 2014

  Actual Average Record
Temperature  
Mean Temperature 87 °F 75 °F  
Max Temperature 105 °F 93 °F 105 °F (2014)
Min Temperature 68 °F 58 °F 37 °F (1966)
Degree Days  
Heating Degree Days 0 0  
Month to date heating degree days 0 0  
Since 1 June heating degree days 10 56  
Since 1 July heating degree days 0 0  
Cooling Degree Days 22 10  
Month to date cooling degree days 241 127  
Year to date cooling degree days 500 300  
Since 1 June cooling degree days 453 263  
Growing Degree Days 36 (Base 50)    
Moisture  
Dew Point 43 °F    
Average Humidity 27    
Maximum Humidity 44    
Minimum Humidity 10    
Precipitation  
Precipitation T in 0.00 in 0.28 in (1952)
Month to date precipitation 0.05 0.07  
Year to date precipitation 2.05 4.35  
Snow  
Snow 0.00 in 0.00 in 0.00 in ()
Month to date snowfall 0.0 0.0  
Since 1 June snowfall 0.0 T  
Since 1 July snowfall 0.0 0.0  
Snow Depth 0.00 in    
Sea Level Pressure  
Sea Level Pressure 29.90 in    
Wind  
Wind Speed 7 mph (NW)    
Max Wind Speed 36 mph    
Max Gust Speed 54 mph    
Visibility 10 miles    
Events Rain , Thunderstorm    
T = Trace of Precipitation, MM = Missing Value Source: NWS Daily Summary

Daily Weather History Graph

Daily Weather History Graph

Search for Another Location

Airport or City:

Astronomy

Jul. 14, 2014 Rise Set
Actual Time 5:43 AM PDT 8:25 PM PDT
Civil Twilight 5:12 AM PDT 8:57 PM PDT
Nautical Twilight 4:32 AM PDT 9:36 PM PDT
Astronomical Twilight 3:47 AM PDT 10:21 PM PDT
Moon 10:00 PM PDT (7/14) 8:31 AM PDT (7/14)
Length of Visible Light 15h 45m
Length of Day
14h 42m
Waning Gibbous, 92% of the Moon is Illuminated
Jul 14
Waning Gibbous
Jul 18
Last Quarter
Jul 26
New
Aug 3
First Quarter
Aug 10
Full

Hourly Weather History & Observations

Time (PDT) Temp. Dew Point Humidity Pressure Visibility Wind Dir Wind Speed Gust Speed Precip Events Conditions
12:55 AM 82.9 °F 37.9 °F 20% 29.91 in 10.0 mi North 6.9 mph - N/A   Scattered Clouds
1:55 AM 77.0 °F 45.0 °F 32% 29.91 in 10.0 mi South 3.5 mph - N/A   Partly Cloudy
2:55 AM 75.9 °F 46.0 °F 35% 29.91 in 10.0 mi Calm Calm - N/A   Clear
3:55 AM 73.9 °F 45.0 °F 35% 29.92 in 10.0 mi West 3.5 mph - N/A   Partly Cloudy
4:55 AM 73.0 °F 44.1 °F 35% 29.92 in 10.0 mi West 6.9 mph - N/A   Partly Cloudy
5:55 AM 69.1 °F 46.9 °F 45% 29.93 in 10.0 mi Calm Calm - N/A   Partly Cloudy
6:55 AM 72.0 °F 45.0 °F 38% 29.94 in 10.0 mi Calm Calm - N/A   Scattered Clouds
7:55 AM 75.9 °F 45.0 °F 33% 29.95 in 10.0 mi Calm Calm - N/A   Scattered Clouds
8:55 AM 81.0 °F 44.1 °F 27% 29.94 in 10.0 mi Calm Calm - N/A   Mostly Cloudy
9:55 AM 86.0 °F 43.0 °F 22% 29.92 in 10.0 mi Calm Calm - N/A   Mostly Cloudy
10:55 AM 90.0 °F 39.9 °F 17% 29.90 in 10.0 mi Calm Calm - N/A   Mostly Cloudy
11:55 AM 96.1 °F 37.9 °F 13% 29.88 in 10.0 mi Variable 3.5 mph - N/A   Mostly Cloudy
1:55 PM 100.9 °F 37.0 °F 11% 29.84 in 10.0 mi Variable 4.6 mph - N/A   Scattered Clouds
2:55 PM 104.0 °F 37.9 °F 10% 29.81 in 10.0 mi South 9.2 mph - N/A   Scattered Clouds
3:55 PM 102.9 °F 37.9 °F 11% 29.79 in 10.0 mi WNW 12.7 mph - N/A   Mostly Cloudy
4:55 PM 99.0 °F 41.0 °F 14% 29.81 in 10.0 mi NW 13.8 mph 21.9 mph N/A Thunderstorm Thunderstorm
5:55 PM 89.1 °F 46.9 °F 23% 29.87 in 10.0 mi WNW 15.0 mph - 0.00 in Thunderstorm Thunderstorm
6:40 PM 96.1 °F 34.0 °F 11% 30.05 in 10.0 mi NW 20.7 mph 35.7 mph N/A   Mostly Cloudy
6:55 PM 95.0 °F 35.1 °F 12% 29.87 in 10.0 mi ENE 10.4 mph 24.2 mph N/A   Mostly Cloudy
7:55 PM 91.9 °F 46.0 °F 21% 29.86 in 10.0 mi West 13.8 mph - N/A   Mostly Cloudy
8:55 PM 87.1 °F 46.0 °F 24% 29.87 in 10.0 mi WNW 19.6 mph 31.1 mph N/A   Scattered Clouds
9:55 PM 86.0 °F 46.0 °F 25% 29.90 in 10.0 mi NW 17.3 mph 23.0 mph N/A   Scattered Clouds
10:55 PM 84.9 °F 46.9 °F 27% 29.91 in 10.0 mi NNE 9.2 mph - N/A   Mostly Cloudy
11:55 PM 82.9 °F 45.0 °F 26% 29.92 in 10.0 mi North 8.1 mph - N/A   Mostly Cloudy